Location: San Gennaro Vesuviano
(40.8833°N, 14.5333°E)
Time: 10:40:40
(UTC+00:00)

Timation 1 Rocket - Pass Details

Date: 22 April 2021
Orbit: 900 x 907 km, 70.0° (Epoch: 10 May)

Event Time Altitude Azimuth Distance (km) Brightness Sun altitude
Exits shadow 19:55:45 - 197° (SSW) 2,694 6.6 -21.7°
Reaches altitude 10° 19:56:05 10° 197° (SSW) 2,571 6.5 -21.8°
Maximum altitude 20:02:01 76° 113° (ESE) 929 4.2 -22.6°
Drops below altitude 10° 20:07:59 10° 28° (NNE) 2,584 6.9 -23.4°
Sets 20:10:29 0° 27° (NNE) 3,528 7.6 -23.8°
